Hourly Weather Roundup
Issued by NWS Central Illinois

Home | Current Version | Previous Version | Text Only | Print | Product List | Glossary On
Versions: 1 2 3 4 5 6 7 8 9 10 11 12 13 14 15 16 17 18 19 20 21 22 23 24 25 26 27 28 29 30 31 32 33 34 35 36 37 38 39 40 41 42 43 44 45 46 47 48 49 50
000
NZUS43 KILX 180310
HWRILX

AREA WEATHER ROUNDUP
NATIONAL WEATHER SERVICE, LINCOLN IL
1000 PM CDT THU APR 17 2014


CITY           SKY/WX    TMP DP  RH WIND       PRES   REMARKS
BLOOMINGTON    CLOUDY    50  37  60 CALM      30.27R
CHAMPAIGN      CLOUDY    50  41  71 NW7       30.25S
DANVILLE       CLOUDY    53  40  61 CALM      30.24R
DECATUR        CLOUDY    53  40  61 N8        30.26S
FLORA          NOT AVBL
GALESBURG      CLOUDY    43  37  78 CALM      30.27S
JACKSONVILLE   CLOUDY    48  38  68 CALM      30.29R
LACON          CLOUDY    49  37  63 CALM      30.26S
LAWRENCEVILLE  PTCLDY    53  42  66 E3        30.27R
LITCHFIELD     CLOUDY    49  44  81 CALM      30.27R
$$


CITY           SKY/WX    TMP DP  RH WIND       PRES   REMARKS
LINCOLN        CLOUDY    52  39  62 NW3       30.27R
MACOMB         CLOUDY    45  37  76 W5        30.30S
MATTOON        CLOUDY    54  41  61 NW3       30.25R
MT CARMEL AP   PTCLDY    54  43  66 CALM      30.26R
OLNEY-NOBLE AP PTCLDY    50  41  71 CALM      30.26R
PARIS          CLOUDY    53  40  60 W5        30.27R
PEORIA         MOCLDY    50  36  58 NW5       30.27S
PONTIAC        CLOUDY    52  41  66 CALM      30.26R
RANTOUL        CLOUDY    55  41  57 CALM      30.26S
ROBINSON       MOCLDY    51  44  76 CALM      30.27S
SPRINGFIELD    CLOUDY    52  38  58 N5        30.27R
TAYLORVILLE    CLOUDY    48  41  76 N6        30.27R
$$

...REGIONAL REPORTS...


CITY           SKY/WX    TMP DP  RH WIND       PRES   REMARKS
CHICAGO O`HARE CLOUDY    53  37  54 W5        30.24S
KANKAKEE       CLOUDY    51  43  73 W3        30.26S
MOLINE         MOCLDY    44  34  67 W5        30.27S
MOUNT VERNON   PTCLDY    45  34  65 CALM      30.27R
PITTSFIELD     CLOUDY    50  39  65 N6        30.29R
QUINCY         CLOUDY    47  38  71 N3        30.28S
ROCKFORD       CLOUDY    49  37  63 CALM      30.27R
$$


CITY           SKY/WX    TMP DP  RH WIND       PRES   REMARKS
BURLINGTON     MOCLDY    44  36  73 W3        30.28R
CEDAR RAPIDS   CLEAR     37  30  75 N9        30.28R WCI  30
DES MOINES     CLEAR     47  30  51 E8        30.30R
KIRKSVILLE     CLEAR     40  33  76 W5        30.29S
OTTUMWA        CLEAR     42  30  62 NE5       30.28S
ST LOUIS       MOCLDY    55  40  56 N6        30.27R
$$


CITY           SKY/WX    TMP DP  RH WIND       PRES   REMARKS
TERRE HAUTE    MOCLDY    52  40  63 SE3       30.26R
EVANSVILLE     PTCLDY    56  40  55 CALM      30.27R
INDIANAPOLIS   MOCLDY    55  34  45 SW3       30.26S
LAFAYETTE      CLOUDY    55  38  52 CALM      30.25R
MADISON        PTCLDY    39  32  76 N5        30.29R
MILWAUKEE      CLOUDY    47  37  68 CALM      30.25S
$$





USA.gov is the U.S. government's official web portal to all federal, state and local government web resources and services.